period_start,C,m1,H,J0,J1,J2,J3,J4,J5,JA,JB,JC,JD,JJ,JK,JN,#
2018-01-24 00:00:42,0.04,1.26,0.00,-1.28,2.22,6.17,15.60,50.43,1040.54,2120.99,3064.13,2887.53,3272.66,600.01,664.52,8.98,0000 0000 0000 0000 000000
2018-01-24 00:05:44,0.03,1.26,0.00,-1.33,2.17,6.09,15.67,50.42,1040.54,2121.02,3063.32,2887.02,3272.02,599.82,664.39,9.03,0000 0000 0000 0000 000000
2018-01-24 00:10:45,0.05,1.26,0.00,-1.38,2.12,6.09,15.72,50.48,1040.54,2121.16,3062.56,2886.82,3271.46,600.16,664.99,9.08,0000 0000 0000 0000 000000
2018-01-24 00:15:47,0.09,1.27,0.00,-1.43,2.07,6.06,15.69,50.58,1040.54,2121.74,3061.83,2886.12,3270.88,600.03,664.78,9.13,0000 0000 0000 0000 000000
2018-01-24 00:20:48,0.03,1.27,0.00,-1.47,2.02,5.95,15.77,50.48,1040.54,2121.97,3061.03,2885.98,3270.07,600.38,665.35,9.18,0000 0000 0000 0000 000000
2018-01-24 00:25:50,0.05,1.27,0.00,-1.51,1.97,5.93,15.65,50.53,1040.54,2121.99,3060.15,2885.44,3269.48,599.94,665.12,9.23,0000 0000 0000 0000 000000
2018-01-24 00:30:51,0.02,1.27,0.00,-1.55,1.93,5.89,15.70,50.45,1040.54,2122.00,3059.37,2885.01,3268.87,599.94,665.16,9.28,0000 0000 0000 0000 000000
2018-01-24 00:35:52,0.06,1.27,0.00,-1.59,1.88,5.87,15.75,50.49,1040.54,2122.03,3058.44,2884.52,3267.95,599.99,665.21,9.33,0000 0000 0000 0000 000000
2018-01-24 00:40:54,0.05,1.28,0.00,-1.64,1.83,5.84,15.73,50.50,1040.54,2122.15,3057.39,2883.99,3267.08,600.08,665.53,9.38,0000 0000 0000 0000 000000
2018-01-24 00:45:55,0.11,1.28,0.00,-1.68,1.78,5.74,15.68,50.43,1040.54,2122.67,3056.42,2883.42,3266.36,599.64,665.14,9.43,0000 0000 0000 0000 000000
2018-01-24 00:50:56,0.05,1.29,0.00,-1.71,1.73,5.73,15.65,50.51,1040.54,2122.96,3055.34,2882.94,3265.49,599.99,665.59,9.48,0000 0000 0000 0000 000000
2018-01-24 00:55:57,0.05,1.29,0.00,-1.75,1.68,5.69,15.73,50.53,1040.54,2122.99,3054.12,2882.12,3264.71,600.12,665.77,9.53,0000 0000 0000 0000 000000
2018-01-24 01:00:58,0.04,1.29,0.00,-1.79,1.63,5.61,15.72,50.44,1040.54,2122.99,3053.01,2881.71,3263.98,600.16,666.06,9.58,0000 0000 0000 0000 000000
2018-01-24 01:06:00,0.05,1.29,0.00,-1.84,1.59,5.58,15.71,50.64,1040.54,2123.04,3051.95,2881.03,3263.18,600.01,665.88,9.63,0000 0000 0000 0000 000000
2018-01-24 01:11:01,0.15,1.30,0.00,-1.88,1.54,5.49,15.86,50.63,1040.54,2123.63,3050.70,2880.04,3262.55,600.32,666.47,9.68,0000 0000 0000 0000 000000
2018-01-24 01:16:02,0.06,1.31,0.00,-1.92,1.49,5.47,15.68,50.58,1040.54,2123.94,3049.79,2879.00,3261.19,600.13,666.29,9.73,0000 0000 0000 0000 000000
2018-01-24 01:21:04,0.05,1.31,0.00,-1.96,1.45,5.40,15.71,50.47,1040.53,2123.99,3049.03,2878.30,3260.20,600.30,666.48,9.78,0000 0000 0000 0000 000000
2018-01-24 01:26:05,0.03,1.31,0.00,-1.99,1.41,5.32,15.72,50.60,1040.53,2123.99,3048.34,2877.98,3259.51,599.93,666.28,9.83,0000 0000 0000 0000 000000
2018-01-24 01:31:07,0.03,1.31,0.00,-1.34,1.37,5.33,15.64,50.45,1040.53,2124.04,3047.93,2877.55,3258.94,599.87,664.61,9.88,0000 0000 0000 0000 000000
2018-01-24 01:36:08,0.05,1.31,0.00,0.11,1.36,5.21,15.46,50.16,1040.54,2124.15,3047.12,2877.02,3258.12,600.40,661.75,9.93,0000 0000 0000 0000 000000
2018-01-24 01:41:09,0.06,1.32,0.00,1.16,1.37,5.21,15.35,50.01,1040.54,2124.26,3045.98,2876.36,3257.34,600.11,658.77,9.98,0000 0000 0000 0000 000000
2018-01-24 01:46:10,0.05,1.32,0.00,2.03,1.40,4.97,15.26,49.73,1040.54,2124.25,3044.91,2875.72,3256.27,600.04,656.60,10.03,0000 0000 0000 0000 000000
2018-01-24 01:51:12,0.04,1.32,0.00,2.68,1.46,4.80,15.06,49.63,1040.54,2124.09,3043.88,2874.90,3255.22,600.00,655.01,10.09,0000 0000 0000 0000 000000
2018-01-24 01:56:13,0.07,1.33,0.00,3.28,1.53,4.80,15.03,49.57,1040.55,2124.00,3042.64,2873.93,3254.11,599.93,653.52,10.14,0000 0000 0000 0000 000000
2018-01-24 02:01:15,0.07,1.33,0.00,4.02,1.62,4.96,14.98,49.52,1040.57,2123.99,3041.17,2872.90,3252.82,599.85,651.71,10.19,0000 0000 0000 0000 000000
2018-01-24 02:06:16,0.05,1.33,0.00,4.63,1.74,5.25,14.98,49.37,1040.66,2123.85,3039.92,2871.87,3251.49,600.35,650.95,10.24,0000 0000 0000 0000 000000
2018-01-24 02:11:18,0.02,1.33,0.00,5.16,1.87,5.65,14.98,49.41,1040.63,2123.09,3038.38,2870.65,3249.94,600.30,649.57,10.29,0000 0000 0000 0000 000000
2018-01-24 02:16:19,0.07,1.34,0.00,5.66,2.03,6.01,14.75,49.32,1040.82,2122.93,3036.69,2869.31,3248.37,600.16,648.35,10.34,0000 0000 0000 0000 000000
2018-01-24 02:21:21,0.03,1.34,0.00,6.07,2.21,6.32,14.90,49.27,1041.00,2122.22,3035.01,2867.93,3246.77,600.31,647.67,10.39,0000 0000 0000 0000 000000
2018-01-24 02:26:22,0.09,1.34,0.00,6.47,2.40,6.60,14.81,49.13,1041.03,2121.87,3033.08,2866.48,3244.92,599.80,646.33,10.44,0000 0000 0000 0000 000000
2018-01-24 02:31:23,0.07,1.35,0.00,6.85,2.60,6.86,14.88,49.22,1041.03,2121.10,3030.45,2864.53,3242.77,600.06,645.66,10.49,0000 0000 0000 0000 000000
2018-01-24 02:36:24,0.48,1.37,0.00,7.25,2.82,7.16,14.75,49.11,1041.03,2120.55,3018.88,2859.13,3236.51,600.05,644.70,10.54,0000 0000 0000 0000 000000
2018-01-24 02:41:26,0.47,1.39,0.00,7.53,3.06,7.41,14.74,49.23,1041.03,2119.85,3005.26,2852.94,3229.29,600.39,644.41,10.59,0000 0000 0000 0000 000000
2018-01-24 02:46:27,0.51,1.41,0.00,7.97,3.30,7.75,14.76,49.23,1041.03,2119.01,2995.40,2848.13,3223.60,600.23,643.29,10.64,0000 0000 0000 0000 000000
2018-01-24 02:53:38,0.18,1.44,0.00,8.42,3.66,8.13,14.68,49.08,1041.19,2117.87,2980.34,2840.75,3215.18,599.87,641.90,10.71,0000 0000 0000 0000 000000
2018-01-24 02:58:39,0.07,1.44,0.00,8.79,3.92,8.42,14.67,49.03,1041.33,2117.01,2977.79,2838.78,3212.91,599.94,641.23,10.76,0000 0000 0000 0000 000000
2018-01-24 03:03:41,0.05,1.44,0.00,9.07,4.19,8.72,14.62,48.94,1041.50,2116.14,2975.54,2836.86,3210.69,600.27,640.97,10.81,0000 0000 0000 0000 000000
2018-01-24 03:08:43,0.03,1.45,0.00,9.33,4.46,9.04,14.67,48.92,1041.52,2115.27,2973.60,2835.14,3208.47,599.81,639.99,10.86,0000 0000 0000 0000 000000
2018-01-24 03:13:45,0.05,1.45,0.00,9.51,4.73,9.34,14.66,48.88,1041.55,2114.35,2971.68,2833.09,3206.09,599.76,639.48,10.91,0000 0000 0000 0000 000000
2018-01-24 03:18:46,0.03,1.45,0.00,9.77,5.01,9.65,14.60,48.69,1041.81,2113.41,2969.73,2831.18,3203.79,599.75,639.06,10.96,0000 0000 0000 0000 000000
2018-01-24 03:23:48,0.05,1.46,0.00,10.05,5.28,9.94,14.71,48.68,1042.00,2112.51,2967.72,2829.37,3201.60,600.18,639.01,11.01,0000 0000 0000 0000 000000
2018-01-24 03:28:49,0.04,1.46,0.00,10.31,5.56,10.25,14.57,48.67,1042.01,2111.51,2965.63,2827.53,3199.41,599.95,638.22,11.06,0000 0000 0000 0000 000000
2018-01-24 03:33:51,0.08,1.46,0.00,10.58,5.83,10.51,14.57,48.58,1042.06,2110.81,2963.68,2825.76,3197.37,600.31,637.84,11.11,0000 0000 0000 0000 000000
2018-01-24 03:38:53,0.05,1.46,0.00,10.85,6.10,10.79,14.56,48.62,1042.34,2109.92,2961.67,2823.98,3195.29,600.05,637.23,11.16,0000 0000 0000 0000 000000
2018-01-24 03:43:54,0.04,1.46,0.00,11.09,6.38,11.06,14.58,48.58,1042.49,2109.01,2959.58,2822.17,3193.16,599.89,636.74,11.21,0000 0000 0000 0000 000000
2018-01-24 03:48:56,0.05,1.47,0.00,11.28,6.65,11.32,14.55,48.59,1042.50,2108.09,2957.38,2820.23,3190.98,599.96,636.35,11.26,0000 0000 0000 0000 000000
2018-01-24 03:53:58,0.04,1.47,0.00,11.49,6.92,11.58,14.66,48.57,1042.57,2107.22,2955.40,2818.40,3188.83,600.04,636.10,11.31,0000 0000 0000 0000 000000
2018-01-24 03:59:00,0.05,1.47,0.00,11.69,7.19,11.86,14.52,48.58,1042.76,2106.37,2953.28,2816.62,3186.80,599.46,635.06,11.36,0000 0000 0000 0000 000000
2018-01-24 04:04:01,0.04,1.47,0.00,11.88,7.46,12.10,14.52,48.52,1042.92,2105.51,2951.29,2814.86,3184.74,599.95,635.31,11.41,0000 0000 0000 0000 000000
2018-01-24 04:09:03,0.03,1.48,0.00,12.07,7.72,12.38,14.62,48.48,1042.98,2104.55,2949.50,2813.16,3182.64,600.44,635.38,11.46,0000 0000 0000 0000 000000
2018-01-24 04:14:05,0.04,1.48,0.00,12.26,7.99,12.63,14.58,48.53,1042.98,2103.59,2947.59,2811.40,3180.56,600.02,634.56,11.51,0000 0000 0000 0000 000000
2018-01-24 04:19:06,0.05,1.48,0.00,12.43,8.26,12.85,14.58,48.44,1043.01,2102.71,2945.66,2809.67,3178.56,600.11,634.21,11.56,0000 0000 0000 0000 000000
2018-01-24 04:24:08,0.01,1.48,0.00,12.62,8.52,13.13,14.53,48.43,1043.01,2101.79,2944.26,2808.07,3176.55,599.90,633.62,11.61,0000 0000 0000 0000 000000
2018-01-24 04:29:10,0.02,1.48,0.00,12.81,8.79,13.36,14.48,48.39,1043.12,2100.83,2942.85,2806.56,3174.69,600.08,633.51,11.67,0000 0000 0000 0000 000000
2018-01-24 04:34:11,0.01,1.48,0.00,12.98,9.04,13.61,14.49,48.36,1043.32,2099.85,2941.45,2804.97,3172.85,599.98,633.10,11.72,0000 0000 0000 0000 000000
2018-01-24 04:39:13,0.02,1.48,0.00,13.05,9.29,13.85,14.56,48.42,1043.46,2098.85,2939.80,2803.39,3170.88,600.12,633.19,11.77,0000 0000 0000 0000 000000
2018-01-24 04:44:14,0.02,1.49,0.00,13.20,9.55,14.09,14.55,48.51,1043.47,2097.91,2938.30,2801.78,3169.01,600.00,632.72,11.82,0000 0000 0000 0000 000000
2018-01-24 04:49:16,0.04,1.49,0.00,13.34,9.79,14.27,14.47,48.37,1043.47,2096.97,2936.61,2800.24,3167.18,600.03,632.43,11.87,0000 0000 0000 0000 000000
2018-01-24 04:54:17,0.04,1.49,0.00,13.46,10.03,14.46,14.44,48.34,1043.48,2096.06,2934.68,2798.38,3164.86,599.58,631.92,11.92,0000 0000 0000 0000 000000
2018-01-24 04:59:19,0.02,1.49,0.00,13.65,10.27,14.65,14.50,48.23,1043.50,2095.17,2933.06,2796.79,3163.13,599.95,631.70,11.97,0000 0000 0000 0000 000000
2018-01-24 05:04:20,0.01,1.49,0.00,13.78,10.50,14.84,14.55,48.28,1043.54,2094.34,2931.51,2795.37,3161.37,600.28,631.76,12.02,0000 0000 0000 0000 000000
2018-01-24 05:09:22,0.02,1.49,0.00,13.95,10.73,15.03,14.50,48.22,1043.72,2093.50,2929.87,2793.85,3159.73,600.34,631.50,12.07,0000 0000 0000 0000 000000
2018-01-24 05:14:23,0.02,1.49,0.00,14.04,10.95,15.18,14.46,48.27,1043.90,2092.65,2928.44,2792.49,3158.09,599.81,630.98,12.12,0000 0000 0000 0000 000000
2018-01-24 05:19:25,0.04,1.50,0.00,14.15,11.17,15.35,14.50,48.23,1043.93,2091.86,2926.92,2791.09,3156.44,599.93,630.94,12.17,0000 0000 0000 0000 000000
2018-01-24 05:24:26,0.02,1.50,0.00,14.29,11.39,15.51,14.50,48.24,1043.96,2091.05,2925.56,2789.73,3154.88,600.34,631.07,12.22,0000 0000 0000 0000 000000
2018-01-24 05:29:28,0.01,1.50,0.00,14.41,11.60,15.67,14.44,48.17,1043.97,2090.21,2923.98,2788.37,3153.31,599.79,630.14,12.27,0000 0000 0000 0000 000000
2018-01-24 05:34:29,0.01,1.50,0.00,14.56,11.82,15.84,14.49,48.18,1043.99,2089.51,2922.53,2786.98,3151.77,600.23,630.29,12.32,0000 0000 0000 0000 000000
2018-01-24 05:39:31,0.06,1.50,0.00,14.68,12.02,15.98,14.49,48.17,1044.05,2088.86,2921.08,2785.63,3150.19,599.83,629.75,12.37,0000 0000 0000 0000 000000
2018-01-24 05:44:32,0.02,1.50,0.00,14.81,12.22,16.13,14.48,48.17,1044.18,2088.03,2919.69,2784.31,3148.57,600.01,629.64,12.42,0000 0000 0000 0000 000000
2018-01-24 05:49:33,0.01,1.50,0.00,14.90,12.42,16.28,14.57,48.17,1044.41,2087.19,2918.26,2782.87,3146.92,600.34,629.90,12.47,0000 0000 0000 0000 000000
2018-01-24 05:54:34,0.01,1.50,0.00,15.02,12.61,16.46,14.49,48.20,1044.45,2086.45,2916.81,2781.58,3145.44,599.93,629.21,12.52,0000 0000 0000 0000 000000
2018-01-24 05:59:35,0.06,1.51,0.00,15.13,12.80,16.61,14.43,48.08,1044.45,2085.88,2915.46,2780.35,3143.93,599.84,628.85,12.57,0000 0000 0000 0000 000000
2018-01-24 06:04:37,0.00,1.51,0.00,15.27,12.99,16.77,14.52,48.11,1044.46,2085.07,2913.95,2778.98,3142.44,600.21,628.96,12.62,0000 0000 0000 0000 000000
2018-01-24 06:09:38,0.02,1.51,0.00,15.41,13.18,16.94,14.38,48.12,1044.48,2084.41,2912.59,2777.71,3140.92,599.90,628.37,12.67,0000 0000 0000 0000 000000
2018-01-24 06:14:39,0.06,1.51,0.00,15.50,13.36,17.09,14.55,48.07,1044.49,2083.90,2911.43,2776.58,3139.61,600.36,628.65,12.72,0000 0000 0000 0000 000000
2018-01-24 06:19:40,0.01,1.51,0.00,15.65,13.54,17.24,14.49,48.10,1044.58,2083.07,2909.88,2775.27,3137.97,600.31,628.25,12.77,0000 0000 0000 0000 000000
2018-01-24 06:24:41,0.01,1.51,0.00,15.79,13.71,17.43,14.44,48.09,1044.72,2082.37,2908.42,2773.85,3136.47,599.84,627.80,12.82,0000 0000 0000 0000 000000
2018-01-24 06:29:43,0.06,1.51,0.00,15.91,13.88,17.56,14.40,48.08,1044.71,2081.84,2906.79,2772.56,3134.96,600.21,627.75,12.87,0000 0000 0000 0000 000000
2018-01-24 06:34:44,0.02,1.52,0.00,16.04,14.04,17.70,14.55,48.17,1044.82,2081.06,2905.28,2771.31,3133.53,600.43,627.76,12.92,0000 0000 0000 0000 000000
2018-01-24 06:39:45,0.03,1.52,0.00,16.13,14.21,17.86,14.41,48.02,1044.90,2080.55,2903.74,2769.88,3131.96,599.93,627.03,12.97,0000 0000 0000 0000 000000
2018-01-24 06:44:47,0.07,1.52,0.00,16.22,14.37,17.98,14.48,48.08,1044.94,2079.94,2902.16,2768.56,3130.42,600.10,626.97,13.02,0000 0000 0000 0000 000000
2018-01-24 06:49:48,0.02,1.52,0.00,16.33,14.54,18.11,14.41,47.98,1044.95,2079.14,2900.43,2767.20,3128.80,600.14,626.91,13.07,0000 0000 0000 0000 000000
2018-01-24 06:54:49,0.06,1.53,0.00,16.44,14.70,18.23,14.43,48.08,1044.97,2078.72,2898.73,2765.82,3127.29,599.81,626.34,13.12,0000 0000 0000 0000 000000
2018-01-24 06:59:50,0.05,1.53,0.00,16.54,14.85,18.40,14.37,48.04,1045.19,2078.04,2897.09,2764.47,3125.67,600.05,626.39,13.17,0000 0000 0000 0000 000000
2018-01-24 07:04:52,0.01,1.53,0.00,16.63,15.01,18.52,14.48,48.10,1045.37,2077.44,2895.55,2763.13,3124.11,600.14,626.59,13.22,0000 0000 0000 0000 000000
2018-01-24 07:09:53,0.07,1.53,0.00,16.72,15.16,18.65,14.49,48.00,1045.41,2076.97,2894.12,2761.85,3122.60,600.19,626.40,13.27,0000 0000 0000 0000 000000
2018-01-24 07:14:54,0.01,1.53,0.00,16.80,15.31,18.79,14.40,47.92,1045.43,2076.15,2892.69,2760.59,3120.98,599.82,625.84,13.32,0000 0000 0000 0000 000000
2018-01-24 07:19:55,0.04,1.54,0.00,16.90,15.45,18.94,14.45,47.88,1045.43,2075.75,2891.39,2759.40,3119.61,599.63,625.60,13.37,0000 0000 0000 0000 000000
2018-01-24 07:24:57,0.02,1.54,0.00,16.95,15.59,19.05,14.49,47.78,1045.44,2075.04,2890.21,2758.23,3118.08,599.87,625.61,13.42,0000 0000 0000 0000 000000
2018-01-24 07:29:59,0.02,1.54,0.00,17.02,15.73,19.18,14.28,47.77,1045.44,2074.50,2888.80,2757.03,3116.65,599.58,625.13,13.47,0000 0000 0000 0000 000000
2018-01-24 07:35:00,0.06,1.54,0.00,17.10,15.87,19.29,14.32,47.83,1045.48,2074.00,2887.51,2755.90,3115.40,599.98,625.48,13.52,0000 0000 0000 0000 000000
2018-01-24 07:40:01,0.00,1.54,0.00,17.25,16.00,19.41,14.32,47.63,1045.46,2073.35,2886.16,2754.77,3114.02,599.66,624.69,13.57,0000 0000 0000 0000 000000
2018-01-24 07:45:02,0.08,1.54,0.00,17.32,16.14,19.57,14.55,47.73,1045.58,2072.99,2884.76,2753.60,3112.69,600.48,625.63,13.62,0000 0000 0000 0000 000000
2018-01-24 07:50:03,-0.01,1.55,0.00,17.38,16.27,19.68,14.35,47.72,1045.64,2072.36,2883.57,2752.49,3111.38,599.84,624.74,13.67,0000 0000 0000 0000 000000
2018-01-24 07:55:04,0.06,1.55,0.00,17.45,16.40,19.79,14.34,47.55,1045.67,2071.98,2882.43,2751.48,3110.04,599.80,624.58,13.72,0000 0000 0000 0000 000000
2018-01-24 08:00:05,-0.01,1.55,0.00,17.52,16.52,19.91,14.44,47.77,1045.79,2071.27,2881.20,2750.44,3108.65,599.85,624.61,13.77,0000 0000 0000 0000 000000
2018-01-24 08:05:07,0.07,1.55,0.00,17.59,16.64,20.05,14.38,47.86,1045.81,2070.93,2879.79,2749.26,3107.27,600.15,624.71,13.82,0000 0000 0000 0000 000000
2018-01-24 08:10:08,0.00,1.55,0.00,17.68,16.77,20.17,14.43,47.88,1045.90,2070.21,2878.61,2748.21,3105.91,600.32,624.67,13.87,0000 0000 0000 0000 000000
2018-01-24 08:15:10,0.07,1.55,0.00,17.76,16.88,20.29,14.30,47.73,1045.91,2069.99,2877.39,2747.13,3104.64,599.85,624.11,13.93,0000 0000 0000 0000 000000
2018-01-24 08:20:11,-0.00,1.56,0.00,17.84,16.99,20.40,14.38,47.79,1045.91,2069.33,2876.06,2745.98,3103.42,600.00,624.34,13.98,0000 0000 0000 0000 000000
2018-01-24 08:25:12,0.08,1.56,0.00,17.91,17.10,20.53,14.46,47.68,1045.91,2069.00,2874.65,2744.76,3102.05,600.19,624.14,14.03,0000 0000 0000 0000 000000
2018-01-24 08:30:14,0.02,1.56,0.00,17.96,17.22,20.63,14.39,47.65,1045.91,2068.58,2873.31,2743.67,3100.68,600.04,623.86,14.08,0000 0000 0000 0000 000000
2018-01-24 08:35:15,0.06,1.56,0.00,18.07,17.33,20.75,14.52,47.67,1045.91,2068.02,2871.89,2742.48,3099.37,600.11,623.71,14.13,0000 0000 0000 0000 000000
2018-01-24 08:40:16,0.04,1.57,0.00,18.11,17.44,20.86,14.45,47.53,1045.91,2067.69,2870.45,2741.31,3097.99,600.07,623.53,14.18,0000 0000 0000 0000 000000
2018-01-24 08:45:17,0.03,1.57,0.00,18.16,17.55,20.97,14.45,47.59,1045.91,2067.05,2869.06,2740.17,3096.70,600.15,623.56,14.23,0000 0000 0000 0000 000000
2018-01-24 08:50:19,0.08,1.57,0.00,18.26,17.66,21.07,14.44,47.62,1045.91,2066.92,2867.64,2738.92,3095.37,600.16,623.31,14.28,0000 0000 0000 0000 000000
2018-01-24 08:55:20,0.01,1.57,0.00,18.35,17.77,21.18,14.29,47.61,1045.92,2066.18,2866.25,2737.75,3093.97,599.63,622.59,14.33,0000 0000 0000 0000 000000
2018-01-24 09:00:21,0.09,1.57,0.00,18.44,17.87,21.29,14.41,47.61,1045.92,2066.00,2864.90,2736.58,3092.70,599.98,623.01,14.38,0000 0000 0000 0000 000000
2018-01-24 09:05:22,0.02,1.58,0.00,18.52,17.98,21.39,14.32,47.54,1045.93,2065.57,2863.55,2735.48,3091.44,599.89,622.36,14.43,0000 0000 0000 0000 000000
2018-01-24 09:10:23,0.05,1.58,0.00,18.60,18.08,21.50,14.36,47.60,1046.06,2065.02,2862.17,2734.35,3090.12,599.99,622.56,14.48,0000 0000 0000 0000 000000
2018-01-24 09:15:25,0.07,1.58,0.00,18.67,18.19,21.59,14.32,47.54,1046.12,2064.93,2860.93,2733.25,3088.86,599.59,622.05,14.53,0000 0000 0000 0000 000000
2018-01-24 09:20:26,0.00,1.58,0.00,18.77,18.29,21.68,14.26,47.45,1046.15,2064.22,2859.62,2732.13,3087.54,599.65,621.87,14.58,0000 0000 0000 0000 000000
2018-01-24 09:25:27,0.08,1.59,0.00,18.83,18.39,21.78,14.31,47.49,1046.30,2063.98,2858.20,2730.92,3086.11,599.77,622.12,14.63,0000 0000 0000 0000 000000
2018-01-24 09:30:29,0.03,1.59,0.00,18.88,18.49,21.88,14.35,47.52,1046.13,2063.60,2856.83,2729.81,3084.82,599.60,621.53,14.68,0000 0000 0000 0000 000000
2018-01-24 09:35:30,0.06,1.59,0.00,18.95,18.59,22.00,14.33,47.55,1046.29,2063.03,2855.47,2728.63,3083.49,600.09,621.93,14.73,0000 0000 0000 0000 000000
2018-01-24 09:40:32,0.08,1.59,0.00,19.00,18.69,22.08,14.32,47.41,1046.27,2062.97,2853.99,2727.52,3082.14,599.83,621.77,14.78,0000 0000 0000 0000 000000
2018-01-24 09:45:33,-0.00,1.60,0.00,19.08,18.78,22.19,14.30,47.42,1046.31,2062.22,2852.59,2726.40,3080.83,600.09,621.76,14.83,0000 0000 0000 0000 000000
2018-01-24 09:50:34,0.07,1.60,0.00,19.15,18.88,22.27,14.36,47.50,1046.33,2062.00,2851.33,2725.27,3079.58,600.06,621.61,14.88,0000 0000 0000 0000 000000
2018-01-24 09:55:35,0.04,1.60,0.00,19.22,18.98,22.36,14.35,47.62,1046.38,2061.75,2849.94,2724.18,3078.31,599.87,621.24,14.93,0000 0000 0000 0000 000000
2018-01-24 10:00:37,0.03,1.60,0.00,19.29,19.07,22.44,14.42,47.51,1046.35,2061.07,2848.60,2723.02,3076.94,600.32,621.55,14.98,0000 0000 0000 0000 000000
2018-01-24 10:05:38,0.08,1.61,0.00,19.36,19.17,22.54,14.30,47.47,1046.35,2060.99,2847.22,2721.87,3075.68,599.39,620.56,15.03,0000 0000 0000 0000 000000
2018-01-24 10:10:39,0.01,1.61,0.00,19.42,19.26,22.63,14.29,47.48,1046.31,2060.50,2845.80,2720.78,3074.42,600.02,620.94,15.08,0000 0000 0000 0000 000000
2018-01-24 10:15:40,0.06,1.61,0.00,19.50,19.35,22.71,14.34,47.49,1046.29,2060.02,2844.55,2719.72,3073.13,599.98,620.69,15.13,0000 0000 0000 0000 000000
2018-01-24 10:20:42,0.08,1.61,0.00,19.58,19.44,22.79,14.37,47.45,1046.32,2059.97,2843.15,2718.57,3071.85,600.11,620.66,15.18,0000 0000 0000 0000 000000
2018-01-24 10:25:43,0.01,1.62,0.00,19.66,19.53,22.88,14.27,47.42,1046.39,2059.43,2841.78,2717.49,3070.69,600.00,620.49,15.23,0000 0000 0000 0000 000000
2018-01-24 10:30:44,0.06,1.62,0.00,19.71,19.62,22.96,14.36,47.33,1046.35,2059.01,2840.51,2716.35,3069.44,599.96,620.31,15.28,0000 0000 0000 0000 000000
2018-01-24 10:35:45,0.05,1.62,0.00,19.77,19.71,23.04,14.32,47.42,1046.33,2058.87,2839.25,2715.33,3068.23,600.23,620.54,15.33,0000 0000 0000 0000 000000
2018-01-24 10:40:47,0.00,1.62,0.00,19.82,19.80,23.13,14.37,47.33,1046.25,2058.18,2837.94,2714.27,3066.95,600.16,620.29,15.38,0000 0000 0000 0000 000000
2018-01-24 10:45:48,0.07,1.63,0.00,19.90,19.89,23.22,14.35,47.34,1046.18,2057.99,2836.74,2713.27,3065.80,600.12,620.06,15.43,0000 0000 0000 0000 000000
2018-01-24 10:50:49,0.05,1.63,0.00,19.98,19.97,23.29,14.30,47.37,1046.22,2057.85,2835.53,2712.20,3064.65,599.91,619.65,15.48,0000 0000 0000 0000 000000
2018-01-24 10:55:50,0.00,1.63,0.00,20.05,20.06,23.37,14.33,47.59,1046.32,2057.18,2834.37,2711.21,3063.49,599.92,619.59,15.53,0000 0000 0000 0000 000000
2018-01-24 11:00:51,0.07,1.63,0.00,20.10,20.14,23.44,14.29,47.44,1046.28,2057.00,2833.12,2710.18,3062.27,599.74,619.15,15.58,0000 0000 0000 0000 000000
2018-01-24 11:05:52,0.06,1.64,0.00,20.15,20.22,23.51,14.30,47.46,1046.39,2056.87,2831.85,2709.14,3061.07,599.80,619.12,15.63,0000 0000 0000 0000 000000
2018-01-24 11:10:53,0.01,1.64,0.00,20.22,20.31,23.61,14.23,47.48,1046.39,2056.13,2830.65,2708.15,3059.91,599.61,618.91,15.68,0000 0000 0000 0000 000000
2018-01-24 11:15:55,0.07,1.64,0.00,20.29,20.39,23.67,14.22,47.38,1046.39,2056.00,2829.50,2707.21,3058.75,599.37,618.50,15.73,0000 0000 0000 0000 000000
2018-01-24 11:20:56,0.05,1.64,0.00,20.36,20.47,23.77,14.32,47.35,1046.38,2055.88,2828.33,2706.21,3057.64,600.16,619.11,15.78,0000 0000 0000 0000 000000
2018-01-24 11:25:58,0.00,1.64,0.00,20.43,20.55,23.84,14.28,47.37,1046.39,2055.17,2827.12,2705.19,3056.47,600.02,618.90,15.83,0000 0000 0000 0000 000000
2018-01-24 11:30:59,0.07,1.65,0.00,20.49,20.63,23.93,14.23,47.36,1046.39,2055.00,2825.84,2704.17,3055.44,599.37,618.09,15.88,0000 0000 0000 0000 000000
2018-01-24 11:36:01,0.07,1.65,0.00,20.53,20.71,23.97,14.36,47.38,1046.40,2054.96,2824.67,2703.29,3054.27,599.97,618.59,15.93,0000 0000 0000 0000 000000
2018-01-24 11:41:02,-0.00,1.65,0.00,20.60,20.79,24.05,14.24,47.34,1046.39,2054.24,2823.42,2702.15,3053.02,599.69,618.28,15.98,0000 0000 0000 0000 000000
2018-01-24 11:46:04,0.06,1.65,0.00,20.65,20.86,24.12,14.27,47.42,1046.39,2054.01,2822.18,2701.17,3051.89,599.68,618.07,16.03,0000 0000 0000 0000 000000
2018-01-24 11:51:05,0.07,1.66,0.00,20.74,20.94,24.18,14.33,47.32,1046.40,2053.97,2821.04,2700.21,3050.77,600.12,618.30,16.08,0000 0000 0000 0000 000000
2018-01-24 11:56:06,0.01,1.66,0.00,20.79,21.02,24.28,14.27,47.45,1046.40,2053.51,2819.89,2699.28,3049.66,599.70,617.82,16.13,0000 0000 0000 0000 000000
2018-01-24 12:01:08,0.05,1.66,0.00,20.86,21.09,24.34,14.32,47.30,1046.40,2053.02,2818.73,2698.32,3048.47,600.38,618.43,16.18,0000 0000 0000 0000 000000
2018-01-24 12:06:09,0.06,1.66,0.00,20.93,21.17,24.40,14.33,47.34,1046.40,2052.98,2817.63,2697.43,3047.47,600.10,617.86,16.23,0000 0000 0000 0000 000000
2018-01-24 12:11:10,0.04,1.67,0.00,21.01,21.24,24.49,14.26,47.30,1046.40,2052.76,2816.43,2696.41,3046.32,599.80,617.58,16.29,0000 0000 0000 0000 000000
2018-01-24 12:16:11,0.01,1.67,0.00,21.06,21.32,24.55,14.31,47.31,1046.40,2052.07,2815.25,2695.42,3045.20,599.97,617.37,16.34,0000 0000 0000 0000 000000
2018-01-24 12:21:12,0.07,1.67,0.00,21.13,21.39,24.63,14.22,47.23,1046.40,2052.00,2813.98,2694.41,3043.97,599.89,617.27,16.39,0000 0000 0000 0000 000000
2018-01-24 12:26:14,0.07,1.67,0.00,21.18,21.47,24.70,14.26,47.19,1046.40,2051.95,2812.75,2693.48,3042.86,600.15,617.45,16.44,0000 0000 0000 0000 000000
2018-01-24 12:31:15,0.01,1.68,0.00,21.23,21.54,24.78,14.29,47.23,1046.40,2051.38,2811.48,2692.47,3041.73,600.04,617.22,16.49,0000 0000 0000 0000 000000
2018-01-24 12:36:16,0.06,1.68,0.00,21.27,21.61,24.86,14.26,47.31,1046.40,2051.01,2809.99,2691.38,3040.49,600.24,617.50,16.54,0000 0000 0000 0000 000000
2018-01-24 12:41:18,0.08,1.68,0.00,21.32,21.69,24.90,14.21,47.20,1046.40,2051.00,2808.57,2690.33,3039.26,599.76,616.74,16.59,0000 0000 0000 0000 000000
2018-01-24 12:46:19,0.07,1.69,0.00,21.37,21.76,24.98,14.26,47.20,1046.40,2050.93,2807.17,2689.23,3037.87,600.48,617.37,16.64,0000 0000 0000 0000 000000
2018-01-24 12:51:20,0.01,1.69,0.00,21.44,21.82,25.06,14.29,47.19,1046.40,2050.24,2805.79,2688.20,3036.62,599.93,616.69,16.69,0000 0000 0000 0000 000000
2018-01-24 12:56:21,0.07,1.69,0.00,21.49,21.89,25.12,14.26,47.33,1046.40,2050.01,2804.40,2687.11,3035.39,600.04,616.62,16.74,0000 0000 0000 0000 000000
2018-01-24 13:01:22,0.07,1.69,0.00,21.56,21.97,25.17,14.30,47.17,1046.40,2049.99,2802.98,2686.10,3034.10,600.35,616.71,16.79,0000 0000 0000 0000 000000